Location: Unspecified
(33.6682°S, 0.0000°E)
Time: 14:19:38
(UTC+00:00)

S-56A Canister/Altair - Pass Details

Date: 27 June 2019
Orbit: 632 x 2500 km, 38.9° (Epoch: 16 July)

Event Time Altitude Azimuth Distance (km) Brightness Sun altitude
Exits shadow 04:14:37 65° 199° (SSW) 1,708 8.9 -34.6°
Maximum altitude 04:15:07 66° 183° (S) 1,725 9.0 -34.5°
Drops below altitude 10° 04:27:25 10° 102° (ESE) 4,664 12.3 -31.9°
Sets 04:31:42 0° 99° (E) 5,878 13.1 -31.1°
